CST,Max TemperatureF,Mean TemperatureF,Min TemperatureF,Max Dew PointF,MeanDew PointF,Min DewpointF,Max Humidity, Mean Humidity, Min Humidity, Max Sea Level PressureIn, Mean Sea Level PressureIn, Min Sea Level PressureIn, Max VisibilityMiles, Mean VisibilityMiles, Min VisibilityMiles, Max Wind SpeedMPH, Mean Wind SpeedMPH, Max Gust SpeedMPH,PrecipitationIn, CloudCover, Events, WindDirDegrees
2012-1-1,33,30,26,30,21,18,87,73,60,30.34,30.10,29.78,10,10,7,34,24,48,0.03,,Snow,312
2012-1-2,21,16,10,14,9,7,85,72,68,30.52,30.45,30.37,10,10,10,23,17,34,0.00,,,314
2012-1-3,33,20,8,23,13,3,85,74,56,30.44,30.11,29.90,10,10,10,32,10,36,0.00,,,180
2012-1-4,41,32,24,32,28,21,93,80,65,30.15,30.05,29.90,10,10,10,18,12,24,0.00,,,272
2012-1-5,57,42,28,43,31,25,93,72,51,29.98,29.84,29.69,10,10,10,16,9,18,0.00,,,229
2012-1-6,42,38,35,34,30,27,81,71,61,29.91,29.79,29.66,10,10,10,15,7,,0.00,,,310
2012-1-7,35,30,24,30,26,21,100,84,70,30.20,30.10,29.96,10,10,10,13,8,,0.00,,,282
2012-1-8,44,32,19,30,24,19,100,80,49,30.29,30.25,30.21,10,10,10,10,6,,0.00,,,232
2012-1-9,48,37,26,34,28,25,93,77,50,30.15,30.03,29.96,10,10,10,18,12,22,0.00,,,232
2012-1-10,55,40,26,37,30,25,93,74,47,29.98,29.88,29.75,10,10,10,14,7,,0.00,,,211
2012-1-11,35,25,15,34,23,7,93,82,68,29.88,29.71,29.58,10,9,1,31,14,40,0.00,8,Snow,315
2012-1-12,14,11,8,7,1,-2,73,67,62,29.86,29.82,29.78,10,9,5,30,24,39,0.00,7,Snow,327
2012-1-13,19,10,1,7,0,-4,85,67,45,30.00,29.95,29.88,10,10,10,18,13,23,0.00,4,,304
2012-1-14,33,22,10,27,15,3,93,79,62,30.06,30.00,29.93,10,9,2,14,3,,0.00,5,Snow,225
2012-1-15,48,32,15,27,22,14,100,68,40,30.09,29.88,29.69,10,10,10,31,13,38,0.00,0,,157
2012-1-16,35,29,21,27,21,14,86,75,65,29.85,29.75,29.68,10,10,10,24,14,33,0.00,1,,348
2012-1-17,19,11,3,12,4,-2,85,73,57,30.29,30.12,29.85,10,8,1,24,18,32,0.00,3,Snow,319
2012-1-18,30,15,0,19,8,-6,85,73,55,30.23,29.94,29.74,10,10,2,29,14,33,0.00,1,Snow,198
2012-1-19,5,0,-5,-9,-13,-17,66,55,39,30.16,30.09,29.95,10,10,10,22,13,30,0.00,2,,347
2012-1-20,6,4,3,1,-1,-9,85,77,56,30.13,30.05,29.99,10,4,0,14,8,17,0.00,7,Snow,91
2012-1-21,19,2,-14,18,-4,-20,93,82,70,30.20,30.09,29.87,10,6,0,24,6,31,0.00,5,Snow,138
2012-1-22,33,27,21,34,28,19,100,97,86,29.72,29.53,29.44,5,2,1,29,18,34,0.13,8,Rain-Snow,144
2012-1-23,28,26,23,28,23,19,100,92,86,29.94,29.68,29.43,10,4,1,25,17,28,0.00,8,Snow,302
2012-1-24,24,22,21,21,20,18,93,91,86,30.26,30.16,29.99,10,8,7,13,7,,0.00,8,,278
2012-1-25,33,28,24,30,26,21,100,91,81,30.27,30.09,29.90,10,6,4,15,8,,0.01,6,,150
2012-1-26,39,32,26,34,29,25,100,87,75,29.86,29.79,29.74,10,8,3,18,12,24,0.00,1,,266
2012-1-27,35,27,19,34,25,18,100,87,69,29.99,29.87,29.81,10,9,1,25,9,34,0.00,5,Rain-Snow,236
2012-1-28,33,25,17,23,18,12,93,76,60,30.08,30.04,29.99,10,10,10,18,14,23,0.00,0,,263
2012-1-29,30,24,17,25,16,10,86,72,59,30.20,30.11,29.98,10,10,10,22,12,28,0.00,4,Snow,302
2012-1-30,48,39,30,37,28,21,80,69,61,29.87,29.72,29.67,10,10,10,21,14,21,0.00,1,,189
2012-1-31,44,40,37,37,33,28,93,74,65,29.90,29.73,29.62,10,10,10,18,14,24,0.00,0,,249